[[{"header":{"parameterUnit":"m.s-1","parameterCategory":1,"la1":30.2991,"la2":30.254,"lo1":-89.0895,"lo2":-89.0444,"dy":0.0017,"dx":0.0017,"nx":28,"ny":28,"refTime":"2024-05-04T09:00:00:Z","depth":0,"parameterNumber":2,"parameterNumberName":"U-component_of_WINDS"},"data":[0,0,0,0,0,0,0,0,0,0,0,0,0,0,0,0,0,0,0,0,0,0,0,0,0,0,0,0,0,0,0,0,0,0,0,0,0,0,0,0,0,0,0,0,0,0,0,0,0,0,0,0,0,0,0,0,0,0,-2.4351,-2.4354,0,-2.4612,-2.4615,-2.4618,-2.4693,-2.4691,-2.469,-2.4688,-2.4953,-2.4962,-2.497,0,0,0,0,0,0,0,0,0,0,0,0,0,-2.3915,-2.3923,-2.4351,-2.4354,-2.4357,-2.4612,-2.4615,-2.4619,-2.4693,-2.4691,-2.4689,-2.4688,-2.4951,-2.4961,-2.4971,0,0,0,0,0,0,0,0,0,0,0,0,0,-2.4133,-2.3925,-2.435,-2.4425,-2.4434,-2.4611,-2.4616,-2.462,-2.4693,-2.4691,-2.4689,-2.4687,-2.4947,-2.496,-2.4972,-2.5093,0,0,-2.501,-2.5016,0,0,0,0,0,0,0,0,-2.4121,-2.4149,-2.4411,-2.442,-2.4431,-2.4618,-2.4559,-2.4778,-2.4694,-2.4595,-2.4688,-2.4686,-2.4843,-2.4864,-2.4918,-2.5105,-2.5117,-2.5012,-2.5019,-2.5025,-2.5028,0,0,0,0,0,0,0,-2.4105,-2.4138,-2.4454,-2.4414,-2.4427,-2.4445,-2.4474,-2.4601,-2.4728,-2.4603,-2.4609,-2.4639,-2.4848,-2.4906,-2.4925,-2.512,-2.5011,-2.5022,-2.503,-2.5035,-2.5421,-2.5424,0,0,0,0,0,0,-2.4078,-2.4125,-2.4446,-2.4462,-2.4267,-2.4455,-2.4487,-2.456,-2.4727,-2.475,-2.4641,-2.4642,-2.4885,-2.491,-2.4934,-2.5088,-2.5025,-2.5036,-2.5044,-2.5419,-2.5422,-2.5425,0,0,0,0,0,0,-2.4068,-2.4106,-2.4435,-2.4295,-2.4339,-2.4465,-2.4546,-2.4566,-2.4624,-2.4755,-2.4778,-2.4676,-2.4884,-2.4917,-2.5053,-2.5098,-2.5042,-2.5053,-2.5416,-2.542,-2.5423,-2.5395,0,0,0,0,0,0,-2.4055,-2.4102,-2.4149,-2.4296,-2.4346,-2.455,-2.4549,-2.4573,-2.4645,-2.4649,-2.4794,-2.4816,-2.4885,-2.5034,-2.5066,-2.5115,-2.5063,-2.5412,-2.5417,-2.5422,-2.5393,-2.5398,-2.5402,0,0,0,0,0,-2.4039,-2.413,-2.4151,-2.4189,-2.4408,-2.4553,-2.4581,-2.466,-2.4649,-2.4697,-2.4782,-2.4812,-2.5088,-2.5048,-2.5084,-2.5137,-2.541,-2.5416,-2.5422,-2.5391,-2.5397,-2.5402,0,0,0,0,0,0,-2.3984,-2.415,-2.4176,-2.4316,-2.442,-2.4565,-2.4629,-2.4663,-2.4772,-2.4771,-2.4862,-2.4895,-2.5025,-2.5095,-2.5047,-2.5263,-2.5249,-2.5263,-2.5213,-2.522,-2.5225,-2.5206,-2.5074,0,0,0,0,0,-2.3988,-2.4092,-2.4232,-2.4342,-2.4393,-2.4502,-2.4568,-2.462,-2.473,-2.4774,-2.4869,-2.4975,-2.5086,-2.5157,-2.5266,-2.5403,-2.5436,-2.5457,-2.5462,-2.5465,-2.5476,-2.5555,-2.5566,-2.5445,-2.5445,-2.5445,0,0,-2.3997,-2.4101,-2.4161,-2.4334,-2.442,-2.4526,-2.4538,-2.4649,-2.4729,-2.4791,-2.4927,-2.5,-2.5124,-2.5261,-2.5327,-2.5323,-2.5517,-2.5473,-2.5475,-2.5484,-2.5562,-2.5574,-2.5584,-2.5449,-2.5448,-2.5448,0,0,-2.4069,-2.4158,-2.4261,-2.4347,-2.4478,-2.455,-2.4575,-2.4716,-2.4767,-2.4905,-2.4954,-2.5049,-2.5238,-2.5325,-2.5394,-2.55,-2.5531,-2.5533,-2.5557,-2.5633,-2.5643,-2.5652,-2.5691,-2.5703,-2.5543,-2.5543,-2.5543,0,-2.4065,-2.4227,-2.4309,-2.4419,-2.4493,-2.4555,-2.466,-2.474,-2.4899,-2.495,-2.4944,-2.5183,-2.5271,-2.5431,-2.5457,-2.551,-2.5541,-2.5517,-2.5635,-2.5645,-2.5654,-2.5692,-2.5707,-2.5542,-2.5542,-2.5542,-2.5542,0,-2.4215,-2.4326,-2.4394,-2.4548,-2.463,-2.4736,-2.4835,-2.4908,-2.4953,-2.5025,-2.5165,-2.5273,-2.5405,-2.5447,-2.5491,-2.5613,-2.5607,-2.5617,-2.5605,-2.5664,-2.5701,-2.5716,-2.5541,-2.5542,-2.5542,-2.5542,0,0,-2.4259,-2.4458,-2.4481,-2.4552,-2.4702,-2.479,-2.4899,-2.503,-2.5092,-2.52,-2.5294,-2.5453,-2.5464,-2.5542,-2.5596,-2.5662,-2.5741,-2.5665,-2.5669,-2.5676,-2.5884,-2.5876,-2.5892,-2.5763,-2.5766,-2.5768,-2.5874,0,-2.4351,-2.4549,-2.4627,-2.4789,-2.4894,-2.4954,-2.505,-2.5152,-2.5223,-2.5322,-2.5399,-2.5511,-2.5516,-2.5564,-2.5632,-2.5717,-2.5784,-2.571,-2.5851,-2.5856,-2.5819,-2.5911,-2.5904,-2.5998,-2.5889,-2.5891,-2.5893,0,-2.4484,-2.4595,-2.4767,-2.4905,-2.4952,-2.5037,-2.5164,-2.5257,-2.5374,-2.5421,-2.5509,-2.556,-2.5677,-2.5657,-2.582,-2.5768,-2.583,-2.588,-2.5886,-2.5903,-2.5878,-2.5931,-2.603,-2.6044,-2.5917,-2.5915,-2.5913,0,-2.45,-2.4692,-2.4821,-2.488,-2.5043,-2.5102,-2.5173,-2.5288,-2.5362,-2.5473,-2.5522,-2.5644,-2.5711,-2.5804,-2.5886,-2.5864,-2.6042,-2.6028,-2.6084,-2.6082,-2.6119,-2.6116,-2.623,-2.6158,-2.6157,-2.6157,-2.6157,0,-2.4595,-2.4698,-2.483,-2.4909,-2.5027,-2.5116,-2.523,-2.5305,-2.5407,-2.5501,-2.5561,-2.5648,-2.5751,-2.5852,-2.5917,-2.6042,-2.6071,-2.6113,-2.6129,-2.6108,-2.6103,-2.6151,-2.6147,-2.6161,-2.616,-2.6159,-2.6159,0,-2.4633,-2.4726,-2.487,-2.5014,-2.5052,-2.5133,-2.5256,-2.5335,-2.5409,-2.5528,-2.5561,-2.5676,-2.5798,-2.5889,-2.6046,-2.609,-2.6224,-2.624,-2.6185,-2.6194,-2.6244,-2.6239,-2.6394,-2.6419,-2.6328,-2.6329,-2.633,0,-2.4688,-2.477,-2.4922,-2.499,-2.5061,-2.517,-2.5247,-2.5336,-2.5413,-2.5554,-2.5616,-2.5742,-2.5848,-2.6039,-2.6137,-2.6258,-2.6278,-2.6324,-2.6296,-2.6273,-2.628,-2.6275,-2.6284,-2.6328,-2.6328,-2.6329,-2.6329,0,-2.4776,-2.4818,-2.4926,-2.5051,-2.5141,-2.5243,-2.5346,-2.5399,-2.5507,-2.5591,-2.5717,-2.5799,-2.596,-2.6085,-2.6216,-2.6288,-2.6327,-2.6337,-2.6357,-2.6337,-2.6302,-2.6323,-2.6196,-2.6333,-2.6333,-2.6333,-2.6332,-2.6332,-2.4826,-2.4901,-2.5021,-2.514,-2.5227,-2.5323,-2.5405,-2.5489,-2.5596,-2.5735,-2.5781,-2.5911,-2.6027,-2.6207,-2.6281,-2.6384,-2.6384,-2.6412,-2.6419,-2.6425,-2.6424,-2.6284,-2.6408,-2.6408,-2.6408,-2.6408,-2.6408,0,-2.4918,-2.4998,-2.5107,-2.525,-2.5344,-2.5373,-2.5489,-2.5565,-2.5679,-2.5784,-2.5888,-2.6033,-2.6154,-2.6261,-2.6387,-2.6449,-2.647,-2.6479,-2.6476,-2.6492,-2.6416,-2.6387,-2.646,-2.646,-2.646,-2.646,-2.646,-2.646,-2.4977,-2.5107,-2.5163,-2.5337,-2.5417,-2.5546,-2.561,-2.5698,-2.5783,-2.5942,-2.6044,-2.6113,-2.622,-2.6354,-2.6467,-2.6495,-2.6539,-2.6544,-2.6577,-2.6504,-2.6498,-2.6491,-2.6465,-2.6553,-2.6553,-2.6645,-2.6646,-2.6646]},{"header":{"parameterUnit":"m.s-1","parameterCategory":1,"la1":30.2991,"la2":30.254,"lo1":-89.0895,"lo2":-89.0444,"dy":0.0017,"dx":0.0017,"nx":28,"ny":28,"refTime":"2024-05-04T09:00:00:Z","depth":0,"parameterNumber":3,"parameterNumberName":"V-component_of_WINDS"},"data":[0,0,0,0,0,0,0,0,0,0,0,0,0,0,0,0,0,0,0,0,0,0,0,0,0,0,0,0,0,0,0,0,0,0,0,0,0,0,0,0,0,0,0,0,0,0,0,0,0,0,0,0,0,0,0,0,0,0,4.2661,4.2662,0,4.2747,4.2748,4.2749,4.2699,4.2697,4.2694,4.2692,4.2779,4.2783,4.2788,0,0,0,0,0,0,0,0,0,0,0,0,0,4.2451,4.2455,4.266,4.2662,4.2663,4.2747,4.2748,4.2749,4.27,4.2697,4.2694,4.2691,4.2777,4.2782,4.2788,0,0,0,0,0,0,0,0,0,0,0,0,0,4.254,4.2456,4.266,4.2648,4.2648,4.2747,4.2748,4.2749,4.27,4.2697,4.2693,4.269,4.2775,4.2782,4.2789,4.2903,0,0,4.281,4.2813,0,0,0,0,0,0,0,0,4.2535,4.2548,4.2649,4.2649,4.2649,4.2709,4.2706,4.2801,4.2701,4.268,4.2692,4.2688,4.2758,4.2766,4.279,4.2908,4.2911,4.281,4.2814,4.2817,4.2819,0,0,0,0,0,0,0,4.2529,4.2544,4.2695,4.265,4.2651,4.2638,4.2646,4.2723,4.2738,4.2682,4.2679,4.269,4.2757,4.2784,4.2792,4.2913,4.281,4.2816,4.282,4.2823,4.3128,4.3131,0,0,0,0,0,0,4.2524,4.2539,4.2692,4.2697,4.2582,4.2644,4.2654,4.2693,4.2738,4.2741,4.2693,4.2687,4.2774,4.2784,4.2795,4.2932,4.2817,4.2824,4.2828,4.3124,4.3129,4.3133,0,0,0,0,0,0,4.2519,4.2538,4.2688,4.2617,4.2635,4.2652,4.2696,4.2697,4.2723,4.2746,4.2748,4.2717,4.2771,4.2785,4.2877,4.2934,4.2827,4.2833,4.3119,4.3125,4.3131,4.3207,0,0,0,0,0,0,4.2514,4.2537,4.2581,4.2619,4.2639,4.277,4.27,4.2701,4.2735,4.2729,4.2769,4.2772,4.277,4.2867,4.2884,4.2942,4.2838,4.3114,4.3122,4.3129,4.32,4.3215,4.3228,0,0,0,0,0,4.2506,4.2599,4.2583,4.2602,4.2695,4.2773,4.2785,4.2781,4.274,4.2784,4.2799,4.2771,4.2925,4.2877,4.2895,4.2956,4.311,4.312,4.3128,4.3193,4.3212,4.3228,0,0,0,0,0,0,4.2567,4.2603,4.2587,4.2694,4.2731,4.2765,4.2821,4.2801,4.285,4.2842,4.2834,4.2843,4.2939,4.2956,4.2902,4.3069,4.3011,4.3024,4.3054,4.3072,4.3086,4.308,4.2844,0,0,0,0,0,4.2593,4.2654,4.2682,4.2774,4.2794,4.2804,4.2838,4.2832,4.2869,4.2884,4.2905,4.2942,4.2999,4.3037,4.309,4.3202,4.3209,4.3253,4.3267,4.3279,4.329,4.335,4.3369,4.3162,4.3162,4.3162,0,0,4.2647,4.2674,4.2713,4.2787,4.2815,4.2878,4.2818,4.2887,4.2933,4.2895,4.2983,4.2999,4.304,4.3142,4.3188,4.316,4.3349,4.329,4.3299,4.3304,4.3361,4.3381,4.3398,4.3168,4.3167,4.3166,0,0,4.2777,4.2805,4.2884,4.2913,4.2956,4.2963,4.2982,4.3019,4.3029,4.3117,4.3089,4.3144,4.3242,4.3272,4.33,4.3442,4.3418,4.3459,4.3534,4.3593,4.3609,4.3623,4.3674,4.3692,4.3471,4.3471,4.3471,0,4.2839,4.2933,4.2927,4.2999,4.3032,4.3,4.3081,4.3109,4.3167,4.319,4.3158,4.328,4.3305,4.3414,4.3448,4.3472,4.3493,4.3455,4.3607,4.3622,4.3635,4.3683,4.3702,4.3476,4.3475,4.3475,4.3474,0,4.3006,4.3072,4.3131,4.3189,4.3228,4.3304,4.3309,4.3349,4.3339,4.3349,4.3439,4.3468,4.3527,4.3552,4.3543,4.3659,4.364,4.3608,4.3549,4.3659,4.3704,4.3723,4.3482,4.3481,4.3479,4.3478,0,0,4.3178,4.3231,4.3253,4.3278,4.3323,4.3374,4.3447,4.3505,4.354,4.3581,4.3642,4.3726,4.3696,4.3728,4.3722,4.3773,4.3883,4.3734,4.3735,4.3761,4.4013,4.4037,4.4059,4.3868,4.3871,4.3874,4.401,0,4.3311,4.344,4.3437,4.3557,4.3617,4.3588,4.3652,4.3687,4.3698,4.375,4.3761,4.3821,4.3777,4.3796,4.3845,4.3859,4.3934,4.385,4.3924,4.3927,4.3915,4.4082,4.4108,4.4235,4.4027,4.403,4.4032,0,4.3484,4.3531,4.3658,4.3693,4.3718,4.3776,4.3829,4.3879,4.3917,4.3921,4.3957,4.3943,4.4017,4.3956,4.4058,4.4001,4.4031,4.4042,4.4047,4.4053,4.3986,4.4093,4.4275,4.4294,4.406,4.4058,4.4056,0,4.3596,4.3691,4.3779,4.3802,4.3846,4.3887,4.3907,4.3942,4.3977,4.4022,4.4045,4.4098,4.4128,4.4169,4.4169,4.4126,4.4272,4.4212,4.4277,4.4277,4.4309,4.4307,4.4498,4.4329,4.4329,4.4328,4.4328,0,4.3745,4.3823,4.383,4.3884,4.397,4.3966,4.4051,4.4067,4.4098,4.4154,4.4132,4.4185,4.4182,4.4235,4.4236,4.432,4.4333,4.4338,4.4337,4.434,4.434,4.436,4.4351,4.4333,4.4332,4.4331,4.433,0,4.3885,4.3893,4.3986,4.402,4.4031,4.4093,4.4122,4.4173,4.4182,4.4253,4.4269,4.4283,4.4345,4.4349,4.442,4.442,4.4522,4.4511,4.4509,4.4508,4.4573,4.4566,4.4783,4.4811,4.4624,4.4626,4.4627,0,4.398,4.4039,4.408,4.4116,4.4139,4.4198,4.4233,4.4231,4.4268,4.4316,4.4361,4.4421,4.4468,4.4568,4.4584,4.4638,4.4629,4.4701,4.4637,4.4638,4.463,4.4626,4.4632,4.4714,4.4716,4.4718,4.4719,0,4.4147,4.4148,4.42,4.4255,4.4298,4.434,4.4379,4.441,4.4412,4.4456,4.4519,4.4556,4.4629,4.4688,4.4741,4.4761,4.4741,4.4739,4.4757,4.4761,4.4757,4.476,4.4543,4.4734,4.4733,4.4731,4.4731,4.473,4.4267,4.4319,4.4355,4.4415,4.4444,4.4481,4.4531,4.4546,4.4599,4.4658,4.4653,4.4723,4.4759,4.4828,4.4852,4.4906,4.4881,4.4907,4.4914,4.4921,4.4927,4.4748,4.4916,4.4915,4.4915,4.4914,4.4914,0,4.4433,4.4455,4.451,4.4566,4.4612,4.4589,4.4632,4.4672,4.4734,4.4769,4.4817,4.4889,4.4946,4.4967,4.5023,4.5062,4.5054,4.5077,4.5074,4.5079,4.4946,4.4925,4.5082,4.5082,4.5082,4.5082,4.5082,4.5082,4.4525,4.4611,4.4616,4.4716,4.4737,4.4806,4.4832,4.4866,4.4894,4.4976,4.5024,4.5037,4.5066,4.5124,4.5176,4.518,4.5201,4.5228,4.5229,4.5105,4.5088,4.5072,4.5052,4.5233,4.5233,4.5356,4.5358,4.5358]}]]